When you browse on this site, cookies collect data to enhance your experience and personalize the content and advertising you see.
Visit our Privacy Policy to learn more. By continuing to use the site, you agree to this use of cookies and data.
  • In Schweiz
  • Länderverzeichnis
  • Für 7 Tage
  • Wassertemperatur
  • Wetterkarte
  • Widgets
  • user-avatar
    Anmelden

    Stündliche Wetter Reding

    Heute, 23 September, Montag

    Zeit Temperatur Niederschläge Wind Luftdruck Luftfeuchtigkeit
    00:00 +13°C° 0 mm 3 m/S 751 mmHg 95%
    01:00 +13°C° 0 mm 3 m/S 752 mmHg 95%
    02:00 +12°C° 0 mm 4 m/S 752 mmHg 95%
    03:00 +12°C° 0 mm 4 m/S 752 mmHg 96%
    04:00 +12°C° 0 mm 4 m/S 752 mmHg 95%
    05:00 +12°C° 0 mm 4 m/S 753 mmHg 93%
    06:00 +12°C° 0 mm 3 m/S 754 mmHg 93%
    07:00 +13°C° 0 mm 3 m/S 754 mmHg 87%
    08:00 +14°C° 0 mm 4 m/S 754 mmHg 80%
    09:00 +17°C° 0 mm 4 m/S 754 mmHg 74%
    10:00 +17°C° 0.1 mm 5 m/S 754 mmHg 72%
    11:00 +17°C° 0.1 mm 6 m/S 754 mmHg 69%
    12:00 +19°C° 0 mm 6 m/S 754 mmHg 64%
    13:00 +19°C° 0.2 mm 6 m/S 754 mmHg 69%
    14:00 +17°C° 0.2 mm 7 m/S 753 mmHg 73%
    15:00 +16°C° 0.2 mm 7 m/S 753 mmHg 78%
    16:00 +16°C° 0.9 mm 7 m/S 753 mmHg 83%
    17:00 +16°C° 0.9 mm 7 m/S 752 mmHg 87%
    18:00 +15°C° 0.9 mm 7 m/S 752 mmHg 92%
    19:00 +16°C° 0.2 mm 6 m/S 752 mmHg 93%
    20:00 +16°C° 0.2 mm 6 m/S 752 mmHg 93%
    21:00 +16°C° 0.2 mm 6 m/S 752 mmHg 94%
    22:00 +16°C° 0.2 mm 5 m/S 751 mmHg 94%
    23:00 +17°C° 0.2 mm 5 m/S 751 mmHg 95%

    Morgen, 24 September, Dienstag

    Zeit Temperatur Niederschläge Wind Luftdruck Luftfeuchtigkeit
    00:00 +18°C° 0.2 mm 4 m/S 751 mmHg 95%
    01:00 +17°C° 0.2 mm 5 m/S 750 mmHg 95%
    02:00 +17°C° 0.2 mm 5 m/S 750 mmHg 94%
    03:00 +17°C° 0.2 mm 5 m/S 749 mmHg 94%
    04:00 +17°C° 2.9 mm 5 m/S 748 mmHg 94%
    05:00 +16°C° 2.9 mm 5 m/S 748 mmHg 94%
    06:00 +16°C° 2.9 mm 5 m/S 747 mmHg 95%
    07:00 +16°C° 4.4 mm 5 m/S 747 mmHg 94%
    08:00 +16°C° 4.4 mm 5 m/S 746 mmHg 94%
    09:00 +16°C° 4.4 mm 5 m/S 746 mmHg 93%
    10:00 +17°C° 1.5 mm 5 m/S 746 mmHg 88%
    11:00 +19°C° 1.5 mm 6 m/S 746 mmHg 83%
    12:00 +18°C° 1.5 mm 7 m/S 746 mmHg 78%
    13:00 +18°C° 0.3 mm 7 m/S 746 mmHg 76%
    14:00 +18°C° 0.3 mm 7 m/S 746 mmHg 74%
    15:00 +18°C° 0.3 mm 7 m/S 746 mmHg 72%
    16:00 +17°C° 0.1 mm 6 m/S 747 mmHg 75%
    17:00 +16°C° 0.1 mm 6 m/S 747 mmHg 79%
    18:00 +15°C° 0.1 mm 5 m/S 747 mmHg 82%
    19:00 +15°C° 0 mm 5 m/S 747 mmHg 84%
    20:00 +14°C° 0 mm 5 m/S 747 mmHg 86%
    21:00 +14°C° 0 mm 5 m/S 747 mmHg 88%
    22:00 +14°C° 0.6 mm 5 m/S 747 mmHg 90%
    23:00 +14°C° 0.6 mm 5 m/S 746 mmHg 91%

    übermorgen, 25 September, Mittwoch

    Zeit Temperatur Niederschläge Wind Luftdruck Luftfeuchtigkeit
    00:00 +14°C° 0.6 mm 6 m/S 746 mmHg 93%
    01:00 +14°C° 0.6 mm 6 m/S 745 mmHg 93%
    02:00 +14°C° 0.6 mm 5 m/S 745 mmHg 92%
    03:00 +14°C° 0.6 mm 5 m/S 744 mmHg 91%
    04:00 +14°C° 0.5 mm 5 m/S 744 mmHg 92%
    05:00 +15°C° 0.5 mm 5 m/S 744 mmHg 93%
    06:00 +15°C° 0.5 mm 4 m/S 743 mmHg 94%
    07:00 +15°C° 0.2 mm 5 m/S 744 mmHg 92%
    08:00 +16°C° 0.2 mm 6 m/S 744 mmHg 90%
    09:00 +16°C° 0.2 mm 6 m/S 745 mmHg 88%
    10:00 +17°C° 0.1 mm 7 m/S 745 mmHg 84%
    11:00 +17°C° 0.1 mm 7 m/S 746 mmHg 80%
    12:00 +18°C° 0.1 mm 7 m/S 747 mmHg 77%
    13:00 +18°C° 0.1 mm 7 m/S 747 mmHg 75%
    14:00 +19°C° 0.1 mm 6 m/S 747 mmHg 73%
    15:00 +20°C° 0.1 mm 6 m/S 748 mmHg 71%
    16:00 +19°C° 0.1 mm 5 m/S 748 mmHg 76%
    17:00 +16°C° 0.1 mm 5 m/S 749 mmHg 81%
    18:00 +15°C° 0.1 mm 5 m/S 749 mmHg 86%
    19:00 +15°C° 0 mm 4 m/S 749 mmHg 89%
    20:00 +14°C° 0 mm 4 m/S 750 mmHg 91%
    21:00 +14°C° 0 mm 3 m/S 750 mmHg 93%
    22:00 +14°C° 0 mm 3 m/S 750 mmHg 93%
    23:00 +14°C° 0 mm 4 m/S 750 mmHg 94%

    26 September, Donnerstag

    Zeit Temperatur Niederschläge Wind Luftdruck Luftfeuchtigkeit
    00:00 +14°C° 0 mm 4 m/S 750 mmHg 94%
    01:00 +15°C° 0 mm 4 m/S 750 mmHg 94%
    02:00 +15°C° 0 mm 5 m/S 750 mmHg 94%
    03:00 +16°C° 0 mm 5 m/S 749 mmHg 94%
    04:00 +16°C° 0.4 mm 6 m/S 749 mmHg 93%
    05:00 +16°C° 0.4 mm 6 m/S 749 mmHg 91%
    06:00 +16°C° 0.4 mm 7 m/S 749 mmHg 90%
    07:00 +16°C° 0.3 mm 7 m/S 749 mmHg 90%
    08:00 +16°C° 0.3 mm 7 m/S 750 mmHg 91%
    09:00 +16°C° 0.3 mm 7 m/S 750 mmHg 91%
    10:00 +16°C° 0.2 mm 7 m/S 750 mmHg 89%
    11:00 +16°C° 0.2 mm 6 m/S 750 mmHg 87%
    12:00 +16°C° 0.2 mm 6 m/S 751 mmHg 86%
    13:00 +17°C° 0.1 mm 6 m/S 751 mmHg 81%
    14:00 +17°C° 0.1 mm 6 m/S 751 mmHg 76%
    15:00 +17°C° 0.1 mm 6 m/S 751 mmHg 71%
    16:00 +16°C° 0.1 mm 5 m/S 751 mmHg 75%
    17:00 +15°C° 0.1 mm 4 m/S 751 mmHg 78%
    18:00 +14°C° 0.1 mm 4 m/S 751 mmHg 82%
    19:00 +14°C° 0 mm 4 m/S 751 mmHg 83%
    20:00 +13°C° 0 mm 4 m/S 752 mmHg 84%
    21:00 +13°C° 0 mm 4 m/S 752 mmHg 85%
    22:00 +13°C° 0 mm 4 m/S 752 mmHg 86%
    23:00 +12°C° 0 mm 4 m/S 752 mmHg 87%

    27 September, Freitag

    Zeit Temperatur Niederschläge Wind Luftdruck Luftfeuchtigkeit
    00:00 +11°C° 0 mm 4 m/S 752 mmHg 87%
    01:00 +11°C° 0 mm 4 m/S 752 mmHg 87%
    02:00 +11°C° 0 mm 4 m/S 752 mmHg 87%
    03:00 +11°C° 0 mm 4 m/S 752 mmHg 87%
    04:00 +11°C° 0 mm 4 m/S 752 mmHg 87%
    05:00 +10°C° 0 mm 5 m/S 752 mmHg 87%
    06:00 +10°C° 0 mm 5 m/S 752 mmHg 86%
    07:00 +13°C° 0 mm 6 m/S 752 mmHg 82%
    08:00 +14°C° 0 mm 6 m/S 752 mmHg 78%
    09:00 +15°C° 0 mm 7 m/S 752 mmHg 74%
    10:00 +15°C° 0.2 mm 7 m/S 752 mmHg 76%
    11:00 +15°C° 0.2 mm 7 m/S 752 mmHg 77%
    12:00 +15°C° 0.2 mm 7 m/S 752 mmHg 79%
    13:00 +15°C° 0.4 mm 7 m/S 752 mmHg 77%
    14:00 +15°C° 0.4 mm 7 m/S 752 mmHg 75%
    15:00 +16°C° 0.4 mm 8 m/S 752 mmHg 73%
    16:00 +15°C° 0.2 mm 7 m/S 752 mmHg 76%
    17:00 +14°C° 0.2 mm 6 m/S 752 mmHg 79%
    18:00 +13°C° 0.2 mm 5 m/S 752 mmHg 81%
    19:00 +13°C° 0 mm 5 m/S 752 mmHg 83%
    20:00 +11°C° 0 mm 6 m/S 752 mmHg 84%
    21:00 +11°C° 0 mm 6 m/S 753 mmHg 86%
    22:00 +10°C° 0 mm 6 m/S 753 mmHg 86%
    23:00 +10°C° 0 mm 6 m/S 753 mmHg 87%

    28 September, Samstag

    Zeit Temperatur Niederschläge Wind Luftdruck Luftfeuchtigkeit
    00:00 +10°C° 0 mm 6 m/S 753 mmHg 87%
    01:00 +10°C° 0 mm 6 m/S 753 mmHg 87%
    02:00 +10°C° 0 mm 6 m/S 753 mmHg 87%
    03:00 +10°C° 0 mm 6 m/S 753 mmHg 86%
    04:00 +10°C° 0.1 mm 6 m/S 753 mmHg 87%
    05:00 +11°C° 0.1 mm 6 m/S 753 mmHg 88%
    06:00 +11°C° 0.1 mm 6 m/S 754 mmHg 89%
    07:00 +13°C° 0 mm 6 m/S 754 mmHg 85%
    08:00 +12°C° 0 mm 7 m/S 754 mmHg 82%
    09:00 +14°C° 0 mm 7 m/S 754 mmHg 78%
    10:00 +15°C° 0.1 mm 7 m/S 754 mmHg 75%
    11:00 +16°C° 0.1 mm 8 m/S 754 mmHg 72%
    12:00 +16°C° 0.1 mm 8 m/S 754 mmHg 68%
    13:00 +16°C° 0.1 mm 7 m/S 754 mmHg 69%
    14:00 +16°C° 0.1 mm 7 m/S 754 mmHg 70%
    15:00 +16°C° 0.1 mm 6 m/S 753 mmHg 70%
    16:00 +15°C° 0.2 mm 6 m/S 753 mmHg 73%
    17:00 +14°C° 0.2 mm 6 m/S 753 mmHg 77%
    18:00 +14°C° 0.2 mm 5 m/S 753 mmHg 80%
    19:00 +13°C° 0.1 mm 5 m/S 753 mmHg 81%
    20:00 +13°C° 0.1 mm 5 m/S 753 mmHg 82%
    21:00 +13°C° 0.1 mm 5 m/S 753 mmHg 84%
    22:00 +12°C° 0.1 mm 5 m/S 752 mmHg 86%
    23:00 +12°C° 0.1 mm 4 m/S 752 mmHg 88%
    Mehr zeigen